Epoch = 2008 May 14.0 TT T = 2008 May 16.69187 TT Peri. = 36.84230 e = 0.5212093 Node = 299.41912 2000.0 q = 1.6647813 AU Incl. = 8.53290 a = 3.4770544 AU n = 0.15201514 P = 6.48 years
m1 = 14.0 + 5 log d + 10.0 log r